TimeCST,TemperatureF,Dew PointF,Humidity,Sea Level PressureIn,VisibilityMPH,Wind Direction,Wind SpeedMPH,Gust SpeedMPH,PrecipitationIn,Events,Conditions,WindDirDegrees,DateUTC
1:52 AM,18.0,15.1,88,30.14,6.0,NE,3.5,-,N/A,,Clear,50,2012-12-14 07:52:00
2:52 AM,17.1,14.0,88,30.13,6.0,East,3.5,-,N/A,,Clear,80,2012-12-14 08:52:00
3:52 AM,18.0,12.9,81,30.12,6.0,Calm,Calm,-,N/A,,Haze,0,2012-12-14 09:52:00
4:52 AM,17.1,14.0,88,30.11,6.0,Calm,Calm,-,N/A,,Clear,0,2012-12-14 10:52:00
5:52 AM,16.0,12.9,88,30.09,6.0,Calm,Calm,-,N/A,,Clear,0,2012-12-14 11:52:00
6:52 AM,18.0,14.0,84,30.09,6.0,Calm,Calm,-,N/A,,Clear,0,2012-12-14 12:52:00
7:52 AM,19.0,15.1,85,30.07,5.0,SE,5.8,-,N/A,,Clear,140,2012-12-14 13:52:00
8:52 AM,24.1,19.9,84,30.05,5.0,SE,6.9,-,N/A,,Clear,130,2012-12-14 14:52:00
9:52 AM,30.0,25.0,82,30.03,7.0,SSE,8.1,-,N/A,,Clear,150,2012-12-14 15:52:00
10:52 AM,39.0,26.1,60,30.02,10.0,SSE,15.0,-,N/A,,Clear,160,2012-12-14 16:52:00
11:52 AM,44.1,26.1,49,29.97,10.0,SSE,13.8,-,N/A,,Clear,150,2012-12-14 17:52:00
12:52 PM,48.0,26.1,42,29.92,10.0,SSE,15.0,-,N/A,,Clear,150,2012-12-14 18:52:00
1:52 PM,48.0,27.0,44,29.87,10.0,SE,13.8,-,N/A,,Clear,140,2012-12-14 19:52:00
2:52 PM,51.1,28.9,43,29.85,10.0,SSE,20.7,26.5,N/A,,Clear,150,2012-12-14 20:52:00
3:52 PM,46.0,28.9,51,29.84,10.0,SSE,15.0,-,N/A,,Clear,150,2012-12-14 21:52:00
4:52 PM,44.1,28.9,55,29.84,10.0,SSE,16.1,-,N/A,,Clear,150,2012-12-14 22:52:00
5:52 PM,42.1,28.0,58,29.85,10.0,SSE,17.3,-,N/A,,Clear,150,2012-12-14 23:52:00
6:52 PM,41.0,28.9,62,29.82,10.0,SE,16.1,-,N/A,,Clear,140,2012-12-15 00:52:00
7:52 PM,42.1,30.0,62,29.81,10.0,SSE,17.3,-,N/A,,Mostly Cloudy,160,2012-12-15 01:52:00
8:27 PM,42.8,30.2,61,29.76,10.0,SSE,18.4,-,N/A,,Overcast,160,2012-12-15 02:27:00
8:52 PM,43.0,30.0,60,29.79,10.0,SSE,16.1,-,N/A,,Overcast,160,2012-12-15 02:52:00
9:05 PM,42.8,30.2,61,29.74,10.0,SSE,17.3,-,N/A,,Overcast,160,2012-12-15 03:05:00
9:52 PM,42.1,30.9,65,29.75,10.0,SSE,16.1,-,N/A,,Scattered Clouds,150,2012-12-15 03:52:00
10:52 PM,42.1,30.9,65,29.72,10.0,SSE,12.7,-,N/A,,Overcast,150,2012-12-15 04:52:00
11:18 PM,42.8,32.0,66,29.69,10.0,SSE,12.7,-,N/A,,Overcast,160,2012-12-15 05:18:00
11:52 PM,43.0,32.0,65,29.69,10.0,SSE,13.8,-,N/A,,Overcast,160,2012-12-15 05:52:00